Location: Stilling
(56.0622°N, 9.9882°E)
Time: 23:51:12
(UTC+00:00)

Cosmos 2154 Rocket - Pass Details

Date: 13 July 2020
Orbit: 967 x 995 km, 82.9° (Epoch: 14 August)

Event Time Altitude Azimuth Distance (km) Brightness Sun altitude
Exits shadow 21:26:34 - 193° (SSW) 3,624 6.5 -8.3°
Reaches altitude 10° 21:29:00 10° 195° (SSW) 2,708 5.9 -8.4°
Maximum altitude 21:35:13 80° 282° (WNW) 994 4.2 -8.8°
Drops below altitude 10° 21:41:31 10° 11° (N) 2,742 7.3 -9.2°
Sets 21:44:03 0° 12° (NNE) 3,698 8.0 -9.3°
